Regional Weather Roundup
Issued by NWS Upton, NY

Current Version | Previous Version | Graphics & Text | Print | Product List | Glossary Off
Versions: 1 2 3 4 5 6 7 8 9 10 11 12 13 14 15 16 17 18 19 20 21 22 23 24 25 26 27 28
000 ASUS41 KOKX 301604 RWROKX REGIONAL WEATHER ROUNDUP NATIONAL WEATHER SERVICE NEW YORK NY 1200 PM EDT SAT APR 30 2016 NOTE: "FAIR" INDICATES FEW OR NO CLOUDS BELOW 12,000 FEET WITH NO SIGNIFICANT WEATHER AND/OR OBSTRUCTIONS TO VISIBILITY. NYZ071-072-176-178-NJZ106-104-301700- NEW YORK CITY METRO AREA CITY SKY/WX TMP DP RH WIND PRES REMARKS CENTRAL PARK SUNNY 60 36 40 E6 30.22S LAGUARDIA APRT MOSUNNY 58 38 47 NE3 30.20S KENNEDY INTL MOSUNNY 59 36 42 VRB3 30.22R NEWARK/LIBERTY PTSUNNY 60 39 45 VRB3 30.20S BRNX BOT. GARD N/A 57 34 41 SE7 30.19F TETERBORO MOSUNNY 59 38 45 SE7 30.19S $$ NYZ177-179-078>081-301700- LONG ISLAND NEW YORK CITY SKY/WX TMP DP RH WIND PRES REMARKS FARMINGDALE SUNNY 59 37 44 VRB3 30.19F ISLIP MOSUNNY 60 42 51 S10 30.18F SHIRLEY SUNNY 60 35 39 CALM 30.19F RIVERHEAD N/A 55 41 58 NE3 30.19F WESTHAMPTON SUNNY 56 39 53 SE14G20 30.20F EAST HAMPTON FAIR 53 38 57 SE10 30.20F MONTAUK POINT N/A 53 38 56 VRB7 30.22F $$ NYZ052-065-067-301700- HUDSON VALLEY CITY SKY/WX TMP DP RH WIND PRES REMARKS WHITE PLAINS MOSUNNY 60 39 45 S8 30.18S NEWBURGH MOSUNNY 57 43 58 VRB6 30.19 MONTGOMERY PTSUNNY 57 43 59 CALM 30.18F POUGHKEEPSIE MOSUNNY 60 42 51 NE7 30.18F ALBANY MOSUNNY 58 29 33 E7 30.20F $$ NJZ001-105-106-008-010-013-015-019>022-104-301700- NEW JERSEY CITY SKY/WX TMP DP RH WIND PRES REMARKS NEWARK/LIBERTY PTSUNNY 60 39 45 VRB3 30.20S TETERBORO MOSUNNY 59 38 45 SE7 30.19S CALDWELL PTSUNNY 57 36 45 CALM 30.20S MORRISTOWN CLOUDY 55 37 50 CALM 30.20S SOMERVILLE PTSUNNY 57 41 55 CALM 30.19S SUSSEX MOSUNNY 56 41 57 W3 30.19S ANDOVER N/A 55 40 56 CALM 30.19S TRENTON CLOUDY 57 41 55 N6 30.20S MILLVILLE CLOUDY 54 42 64 SE3 30.21S ATLANTIC CITY CLOUDY 54 43 66 E12 30.21S WRIGHTSTOWN DRIZZLE 56 43 61 VRB1 30.18F TOMS RIVER CLOUDY 54 41 62 E7 30.22F BELMAR CLOUDY 54 40 59 E9 30.22S $$ PAZ047>061-062-071-301700- EASTERN PENNSYLVANIA CITY SKY/WX TMP DP RH WIND PRES REMARKS PHILADELPHIA PTSUNNY 59 40 49 E6 30.22S ALLENTOWN PTSUNNY 57 42 57 SE6 30.20F SCRANTON PTSUNNY 53 41 63 CALM 30.18F $$ CTZ002-004>006-009-010-012-RIZ004-006-007-MAZ004-011-015-301700- SOUTHERN NEW ENGLAND IN CT CITY SKY/WX TMP DP RH WIND PRES REMARKS BRADLEY INTL MOSUNNY 63 39 41 VRB3 30.16F HARTFORD SUNNY 63 43 48 NE5 30.17F DANBURY SUNNY 59 37 44 CALM 30.19F WTRBRY/OXFORD PTSUNNY 59 37 44 S8 30.18F BRIDGEPORT SUNNY 53 44 71 S7 30.19F MERIDEN SUNNY 61 38 42 VRB3 30.17F NEW HAVEN MOSUNNY 56 46 69 S9 30.19F CHESTER FAIR 59 36 41 CALM 30.17F GROTON SUNNY 53 46 77 SE14 30.19F WILLIMANTIC SUNNY 63 37 38 VRB3 30.17F IN RI CITY SKY/WX TMP DP RH WIND PRES REMARKS PROVIDENCE MOSUNNY 60 31 33 NE7 30.19F BLOCK ISLAND SUNNY 50 38 63 E9 30.21F WESTERLY SUNNY 53 38 56 SE13 30.20F IN MA CITY SKY/WX TMP DP RH WIND PRES REMARKS BOSTON MOSUNNY 55 35 47 E10 30.21F WORCESTER SUNNY 55 37 50 SE3 30.17F WESTFIELD MOSUNNY 62 38 40 E7 30.16F PROVINCETOWN SUNNY 52 31 44 NE10 30.23F NANTUCKET SUNNY 53 30 41 NE17G25 30.21S $$ ANZ330-335-338-340-345-350-353-355-301700- COASTAL MARINE OBSERVATIONS STATION/POSITION TIME SKY/WX TEMP WIND PRES VSBY WAVE AIR SEA DIR/SP/G HT/PER (UTC) (F) (DEG/KT/KT) (MB) (MI) (FT/S) NY HARB ENTRANCE 1450 49 51 40/ 6/ 8 1022.8 5/ 8 20S FIRE ISLAND 1450 47 48 50/ 12/ 12 1022.8 6/ 8 GREAT SOUTH BAY 1515 50 58 170/ 8/ 10 N/A 23 SSW MONTAUK P 1550 46 48 70/ 10/ 12 1022.5 5/ 7 15 E BARNEGAT LI 1522 50 N/A 6/ 8 HUDSON CANYON 1450 47 48 1022.1 7/ 8 KINGS POINT 1500 51 53 1022.3 EXECUTION ROCKS NOT AVBL CENTRAL LI SOUND 1500 49 190/ 4/ 4 N/A 0 EASTERN LI SOUND 1500 51 49 210/ 6/ 8 N/A ROBBINS REEF 1500 52 10/ 3/ 4 1022.0 $$ >>>>>>>>>>>>>>>>>>>>>>>>>>>> KEY <<<<<<<<<<<<<<<<<<<<<<<<<<< > < > SKY/WX - SKY CONDITION/PRESENT WEATHER < > TMP - TEMPERATURE IN FAHRENHEIT < > DP - DEWPOINT IN FAHRENHEIT < > RH - RELATIVE HUMIDITY IN PERCENT < > WIND - DIRECTION AND SPEED IN MPH < > PRES - MEAN SEA LEVEL PRESSURE IN INCHES OF HG < > WCI - WIND CHILL INDEX < > VSB - VISIBILITY IN MILES < > HX - HEAT INDEX < > TC - TEMPERATURE IN CELSIUS < > VRB - VARIABLE WIND DIRECTION < > < >>>>>>>>>>>>>>>>>>>>>>>>>>>> KEY <<<<<<<<<<<<<<<<<<<<<<<<<<<

USA.gov is the U.S. government's official web portal to all federal, state and local government web resources and services.